Zurück zum Katalog

STARLINK-36548

AktivKommunikationVLEO
NORAD 67617·PAYLOAD·🇺🇸 United States

Gestartet Jan 30, 2026 von Cape Canaveral Space Force Station

Loading…

Nächste Überflüge (nächste 24 Stunden)

TLE

AktuellSource: CelesTrak SupGP

Epoche: Sep 15, 2026, 02:38 UTC

1 67617C 26020A   26258.11020833  .00038387  00000+0  13905-2 0  2584
2 67617  43.0010 150.3544 0001149 273.5786 297.6082 15.27556218    19

Verfolge STARLINK-36548 in Echtzeit mit AllMySat

Download on the App Store